�N����,����,�~����,�C��,���x,�C��,����,���ϕ���,�ő�u�ԕ���,�ő厞����,���˗�,�I�_���x,�n�����x,�ő啗���N��,DTYPE
"19/11/08","00:10",0.0,11.1,91.0,1009.7,286.7,1.3,2.2,297.1,0.00,9.7,14.8,"00:09:54",1
"19/11/08","00:20",0.0,12.2,91.1,1009.7,283.6,1.5,2.5,327.5,0.00,10.8,14.7,"00:10:40",1
"19/11/08","00:30",0.0,12.4,91.0,1010.0,262.9,0.8,1.7,247.7,0.00,11.0,14.7,"00:20:24",1
"19/11/08","00:40",0.0,12.4,91.1,1010.0,275.1,0.7,1.6,322.4,0.00,11.0,14.8,"00:34:00",1
"19/11/08","00:50",0.0,12.3,91.3,1010.0,286.1,0.7,1.7,302.7,0.00,11.0,14.8,"00:49:54",1
"19/11/08","01:00",0.0,12.4,91.4,1010.0,301.6,1.3,2.1,310.1,0.00,11.1,14.8,"00:52:42",1
"19/11/08","01:10",0.0,12.5,91.6,1010.0,303.0,1.5,3.1,343.5,0.00,11.2,14.9,"01:07:14",1
"19/11/08","01:20",0.0,12.9,91.4,1009.7,318.9,2.1,4.1,334.8,0.00,11.6,14.7,"01:19:36",1
"19/11/08","01:30",0.0,13.0,91.2,1010.2,322.7,2.2,4.7,341.3,0.00,11.6,14.9,"01:20:08",1
"19/11/08","01:40",0.0,13.1,91.0,1010.2,313.4,2.0,4.3,345.3,0.00,11.7,14.8,"01:30:16",1
"19/11/08","01:50",0.0,13.1,90.8,1010.2,310.9,2.0,3.7,331.9,0.00,11.7,15.1,"01:42:16",1
"19/11/08","02:00",0.0,13.2,90.6,1010.4,309.6,2.0,3.6,318.2,0.00,11.7,14.9,"01:55:20",1
"19/11/08","02:10",0.0,13.2,90.2,1010.4,308.2,2.0,4.1,337.5,0.00,11.7,14.8,"02:00:24",1
"19/11/08","02:20",0.0,13.3,89.8,1010.7,309.9,2.1,3.4,326.3,0.00,11.7,14.9,"02:11:48",1
"19/11/08","02:30",0.0,13.4,89.3,1010.7,316.1,2.1,4.1,328.7,0.00,11.7,15.0,"02:20:26",1
"19/11/08","02:40",0.0,13.4,88.9,1011.2,313.0,2.1,4.9,330.5,0.00,11.6,15.0,"02:37:06",1
"19/11/08","02:50",0.0,13.6,87.6,1011.2,329.5,2.6,5.1,317.3,0.00,11.6,14.9,"02:49:10",1
"19/11/08","03:00",0.0,13.6,86.2,1011.4,323.9,2.6,5.0,314.7,0.00,11.4,15.0,"02:51:36",1
"19/11/08","03:10",0.0,13.5,84.6,1011.4,328.6,3.0,5.0,244.7,0.00,11.0,14.9,"03:00:08",1
"19/11/08","03:20",0.0,13.2,82.9,1011.2,326.0,2.6,4.2,343.6,0.00,10.4,14.9,"03:12:14",1
"19/11/08","03:30",0.0,13.0,81.8,1011.6,317.2,2.6,4.8,323.7,0.00,10.0,14.9,"03:28:58",1
"19/11/08","03:40",0.0,12.9,81.0,1011.2,304.3,2.2,4.4,325.6,0.00,9.8,14.8,"03:34:50",1
"19/11/08","03:50",0.0,12.8,80.4,1011.4,322.2,2.1,3.9,324.1,0.00,9.6,14.9,"03:47:54",1
"19/11/08","04:00",0.0,12.7,80.2,1011.4,308.9,2.1,3.6,336.1,0.00,9.4,14.9,"03:58:06",1
"19/11/08","04:10",0.0,12.8,79.8,1011.4,325.3,2.5,4.9,336.3,0.00,9.4,15.0,"04:06:00",1
"19/11/08","04:20",0.0,12.6,79.4,1011.2,306.7,2.0,3.2,315.8,0.00,9.2,14.8,"04:10:08",1
"19/11/08","04:30",0.0,12.5,79.4,1010.9,305.9,2.3,4.9,330.9,0.00,9.1,14.7,"04:25:52",1
"19/11/08","04:40",0.0,12.4,79.3,1010.9,308.7,1.7,3.3,317.3,0.00,9.0,14.6,"04:33:42",1
"19/11/08","04:50",0.0,12.5,79.2,1011.4,332.4,2.6,5.4,327.7,0.00,9.0,14.7,"04:47:38",1
"19/11/08","05:00",0.0,12.5,78.8,1011.4,294.7,2.2,4.8,335.6,0.00,9.0,14.6,"04:53:58",1
"19/11/08","05:10",0.0,12.2,78.7,1011.6,292.6,1.8,2.9,321.7,0.00,8.7,14.6,"05:04:12",1
"19/11/08","05:20",0.0,12.2,78.7,1011.6,281.8,2.0,3.9,240.5,0.00,8.7,14.7,"05:16:20",1
"19/11/08","05:30",0.0,12.0,78.6,1011.4,308.1,2.1,4.0,322.8,0.00,8.4,14.6,"05:22:56",1
"19/11/08","05:40",0.0,11.9,78.5,1011.9,285.2,1.7,2.5,241.8,0.00,8.3,14.7,"05:39:00",1
"19/11/08","05:50",0.0,11.7,78.6,1011.9,285.3,1.7,2.7,328.9,0.00,8.1,14.5,"05:43:58",1
"19/11/08","06:00",0.0,11.7,78.8,1011.9,278.8,2.0,3.9,261.8,0.00,8.2,14.5,"05:54:08",1
"19/11/08","06:10",0.0,11.7,78.7,1011.6,315.3,2.6,5.0,311.9,0.00,8.2,14.4,"06:01:08",1
"19/11/08","06:20",0.0,11.7,78.4,1011.9,300.5,2.3,4.4,332.5,0.00,8.1,14.3,"06:19:44",1
"19/11/08","06:30",0.0,11.7,77.9,1011.9,283.2,1.8,2.9,311.9,0.00,8.0,14.3,"06:27:52",1
"19/11/08","06:40",0.0,11.7,77.6,1011.9,286.3,2.1,3.6,342.2,0.00,8.0,14.4,"06:31:20",1
"19/11/08","06:50",0.0,11.6,77.4,1012.1,296.6,2.0,3.5,339.6,0.00,7.8,14.3,"06:43:54",1
"19/11/08","07:00",0.0,11.3,77.2,1012.6,300.8,1.6,2.4,334.0,0.00,7.5,14.2,"06:50:50",1
"19/11/08","07:10",0.0,11.1,77.9,1012.6,309.3,1.8,3.2,334.8,0.00,7.4,14.2,"07:04:10",1
"19/11/08","07:20",0.0,11.0,78.6,1012.3,310.2,2.0,2.9,330.8,0.00,7.5,14.2,"07:17:04",1
"19/11/08","07:30",0.0,11.0,79.2,1012.6,292.8,1.7,3.2,338.0,0.00,7.6,14.2,"07:29:04",1
"19/11/08","07:40",0.0,11.4,79.4,1013.0,307.2,2.1,4.1,332.6,0.00,8.0,14.0,"07:38:18",1
"19/11/08","07:50",0.0,12.1,78.5,1013.0,305.2,1.6,3.9,343.0,0.01,8.5,13.9,"07:44:00",1
"19/11/08","08:00",0.0,12.6,77.0,1013.3,301.4,1.6,4.0,316.8,0.02,8.7,14.2,"07:50:32",1
"19/11/08","08:10",0.0,12.9,75.3,1013.3,322.0,1.8,3.7,328.0,0.03,8.7,13.9,"08:08:48",1
"19/11/08","08:20",0.0,13.2,73.4,1013.8,301.7,1.8,4.1,264.7,0.05,8.6,14.0,"08:11:04",1
"19/11/08","08:30",0.0,13.5,71.7,1014.0,315.4,1.7,3.9,340.7,0.07,8.5,14.0,"08:20:16",1
"19/11/08","08:40",0.0,13.8,70.6,1014.0,283.0,1.7,4.9,333.7,0.08,8.6,14.2,"08:34:16",1
"19/11/08","08:50",0.0,14.1,69.4,1014.0,246.4,1.1,2.7,214.0,0.11,8.6,14.1,"08:42:32",1
"19/11/08","09:00",0.0,14.6,68.4,1014.2,279.3,1.0,1.9,303.1,0.14,8.9,14.5,"08:59:52",1
"19/11/08","09:10",0.0,14.7,66.5,1014.5,337.1,2.2,4.7,333.0,0.16,8.6,14.3,"09:07:44",1
"19/11/08","09:20",0.0,14.8,65.3,1014.5,312.4,1.8,4.9,336.2,0.18,8.4,14.5,"09:14:08",1
"19/11/08","09:30",0.0,15.1,64.6,1014.5,346.5,1.3,3.2,9.1,0.22,8.5,14.8,"09:29:12",1
"19/11/08","09:40",0.0,15.0,63.9,1014.2,351.3,2.0,4.4,48.6,0.22,8.3,14.8,"09:30:32",1
"19/11/08","09:50",0.0,15.5,62.9,1014.5,359.8,1.5,5.0,331.8,0.28,8.5,15.0,"09:49:20",1
"19/11/08","10:00",0.0,15.5,62.2,1014.2,12.8,2.0,4.7,346.5,0.30,8.3,15.1,"09:54:24",1
"19/11/08","10:10",0.0,15.7,61.1,1014.5,355.3,1.6,5.1,344.6,0.31,8.3,15.3,"10:00:56",1
"19/11/08","10:20",0.0,16.0,60.4,1014.2,11.5,1.6,3.6,355.9,0.35,8.4,15.3,"10:16:56",1
"19/11/08","10:30",0.0,16.6,59.3,1014.2,343.6,1.5,3.1,356.6,0.35,8.7,15.7,"10:21:12",1
"19/11/08","10:40",0.0,16.5,56.0,1014.2,354.3,1.7,4.0,314.3,0.36,7.7,15.8,"10:32:00",1
"19/11/08","10:50",0.0,16.6,56.5,1014.2,344.0,1.6,6.2,341.9,0.37,8.0,15.7,"10:41:44",1
"19/11/08","11:00",0.0,17.1,55.4,1014.2,324.9,1.6,4.9,341.4,0.39,8.1,16.4,"10:58:16",1
"19/11/08","11:10",0.0,16.5,53.0,1014.0,12.8,1.8,3.6,30.0,0.40,6.9,16.4,"11:08:32",1
"19/11/08","11:20",0.0,17.0,54.0,1014.0,341.7,1.5,5.8,350.5,0.41,7.7,16.4,"11:19:44",1
"19/11/08","11:30",0.0,17.3,52.9,1013.8,320.5,1.3,4.1,340.1,0.41,7.7,16.6,"11:20:32",1
"19/11/08","11:40",0.0,17.2,51.4,1013.3,33.5,1.2,3.9,22.6,0.40,7.1,16.9,"11:36:08",1
"19/11/08","11:50",0.0,17.0,50.3,1013.0,15.4,1.6,4.2,342.6,0.39,6.6,17.0,"11:47:04",1
"19/11/08","12:00",0.0,17.7,48.6,1012.8,321.0,1.2,3.2,346.6,0.43,6.8,17.1,"11:59:36",1
"19/11/08","12:10",0.0,18.1,47.8,1013.3,332.7,2.0,4.1,329.5,0.44,6.9,17.4,"12:04:48",1
"19/11/08","12:20",0.0,17.6,45.4,1012.8,325.6,2.8,5.0,339.4,0.44,5.7,17.5,"12:10:40",1
"19/11/08","12:30",0.0,17.6,46.3,1012.8,336.4,2.8,5.9,310.2,0.44,6.0,17.7,"12:21:20",1
"19/11/08","12:40",0.0,17.8,44.3,1012.6,328.2,2.1,6.0,342.3,0.41,5.5,17.7,"12:35:04",1
"19/11/08","12:50",0.0,17.8,45.4,1012.6,334.4,2.3,6.0,335.5,0.44,5.9,17.8,"12:45:04",1
"19/11/08","13:00",0.0,18.0,45.0,1012.6,351.1,2.0,5.7,331.7,0.43,5.9,17.9,"12:56:00",1
"19/11/08","13:10",0.0,18.4,44.7,1011.9,354.3,1.6,4.0,25.3,0.42,6.2,17.9,"13:07:20",1
"19/11/08","13:20",0.0,17.9,44.4,1012.1,14.2,2.1,4.5,42.0,0.42,5.7,18.2,"13:10:48",1
"19/11/08","13:30",0.0,17.9,44.0,1011.6,15.8,2.2,4.1,97.8,0.42,5.5,18.2,"13:20:32",1
"19/11/08","13:40",0.0,17.8,46.2,1011.9,0.2,2.6,5.6,1.5,0.39,6.1,18.4,"13:38:08",1
"19/11/08","13:50",0.0,18.3,46.2,1011.6,337.5,2.0,3.5,356.8,0.38,6.6,18.5,"13:48:48",1
"19/11/08","14:00",0.0,18.1,45.3,1011.9,339.8,2.5,5.4,330.5,0.36,6.1,18.3,"13:53:36",1
"19/11/08","14:10",0.0,17.5,44.3,1011.6,347.3,2.7,5.8,347.5,0.28,5.3,18.2,"14:02:40",1
"19/11/08","14:20",0.0,18.0,45.8,1011.9,346.0,2.6,5.9,344.5,0.34,6.2,18.4,"14:16:48",1
"19/11/08","14:30",0.0,18.0,44.1,1011.6,346.9,2.5,5.7,349.3,0.32,5.6,18.5,"14:25:20",1
"19/11/08","14:40",0.0,18.2,44.7,1011.4,327.8,2.2,5.8,316.0,0.30,6.0,18.5,"14:39:20",1
"19/11/08","14:50",0.0,18.2,45.1,1011.9,347.7,2.2,4.9,344.3,0.28,6.2,18.5,"14:43:04",1
"19/11/08","15:00",0.0,18.2,44.8,1011.4,330.6,2.2,4.4,352.9,0.26,6.1,18.3,"14:56:32",1
"19/11/08","15:10",0.0,17.9,45.5,1011.4,323.6,2.6,5.5,339.9,0.24,6.0,18.3,"15:03:28",1
"19/11/08","15:20",0.0,17.5,45.3,1011.9,339.5,2.6,5.7,343.7,0.21,5.6,18.2,"15:19:12",1
"19/11/08","15:30",0.0,17.6,47.3,1011.6,328.8,2.2,4.1,346.4,0.19,6.3,18.3,"15:21:20",1
"19/11/08","15:40",0.0,17.3,47.2,1011.4,342.9,2.2,4.8,316.0,0.17,6.0,18.3,"15:39:12",1
"19/11/08","15:50",0.0,17.0,48.1,1011.9,328.2,2.6,5.4,340.1,0.14,6.0,18.3,"15:40:02",1
"19/11/08","16:00",0.0,16.5,48.4,1012.1,323.9,3.1,7.4,343.6,0.12,5.6,17.9,"15:56:40",1
"19/11/08","16:10",0.0,16.4,49.8,1012.1,327.8,2.5,4.0,327.8,0.09,5.9,17.9,"16:07:44",1
"19/11/08","16:20",0.0,16.2,50.9,1012.3,333.8,2.2,3.9,346.3,0.07,6.1,18.1,"16:16:08",1
"19/11/08","16:30",0.0,15.8,51.2,1012.6,346.7,2.3,4.8,336.3,0.05,5.8,17.9,"16:24:08",1
"19/11/08","16:40",0.0,15.7,52.4,1012.6,340.7,1.5,2.4,350.1,0.03,6.0,17.8,"16:30:08",1
"19/11/08","16:50",0.0,15.0,54.0,1012.8,336.3,2.1,3.9,335.0,0.02,5.8,17.6,"16:49:44",1
"19/11/08","17:00",0.0,14.3,54.2,1012.6,341.0,2.3,4.1,348.3,0.00,5.2,17.6,"16:58:08",1
"19/11/08","17:10",0.0,14.0,54.9,1012.8,331.9,2.1,5.2,331.4,0.00,5.1,17.3,"17:02:08",1
"19/11/08","17:20",0.0,13.5,56.1,1012.3,335.7,2.0,3.2,325.5,0.00,5.0,17.3,"17:17:22",1
"19/11/08","17:30",0.0,13.1,57.7,1012.8,330.7,1.3,2.6,333.2,0.00,5.0,17.1,"17:23:16",1
"19/11/08","17:40",0.0,12.5,59.7,1012.6,332.0,1.5,2.6,335.5,0.00,4.9,17.0,"17:31:04",1
"19/11/08","17:50",0.0,12.0,63.0,1012.6,341.9,1.3,1.9,354.9,0.00,5.2,16.8,"17:45:52",1
"19/11/08","18:00",0.0,11.3,65.2,1012.6,326.1,1.2,1.7,350.4,0.00,5.1,16.7,"17:50:52",1
"19/11/08","18:10",0.0,10.4,66.7,1012.3,300.4,1.0,1.7,317.2,0.00,4.5,16.3,"18:02:08",1
"19/11/08","18:20",0.0,10.2,69.2,1012.8,312.6,1.6,3.1,320.8,0.00,4.9,16.2,"18:19:12",1
"19/11/08","18:30",0.0,10.1,71.0,1013.0,324.4,1.5,2.5,341.3,0.00,5.1,16.2,"18:29:12",1
"19/11/08","18:40",0.0,10.0,72.4,1012.6,325.9,1.5,2.5,318.0,0.00,5.3,15.9,"18:33:20",1
"19/11/08","18:50",0.0,9.8,73.6,1012.8,309.7,1.3,2.9,335.4,0.00,5.4,15.9,"18:43:36",1
"19/11/08","19:00",0.0,9.2,74.4,1013.0,296.1,0.8,1.1,314.4,0.00,4.9,15.9,"18:50:56",1
"19/11/08","19:10",0.0,9.0,75.7,1013.0,290.8,1.5,3.2,328.4,0.00,5.0,15.7,"19:04:24",1
"19/11/08","19:20",0.0,9.2,77.2,1013.3,302.2,2.0,3.1,309.4,0.00,5.5,15.4,"19:18:00",1
"19/11/08","19:30",0.0,9.2,78.6,1013.0,322.4,2.0,3.4,342.3,0.00,5.7,15.5,"19:23:20",1
"19/11/08","19:40",0.0,9.1,79.7,1013.5,328.3,1.7,2.6,322.1,0.00,5.8,15.3,"19:32:56",1
"19/11/08","19:50",0.0,8.9,80.6,1013.5,320.5,2.0,2.7,324.0,0.00,5.8,15.3,"19:46:00",1
"19/11/08","20:00",0.0,8.6,81.4,1013.3,296.1,1.6,2.2,307.0,0.00,5.6,15.2,"19:50:48",1
"19/11/08","20:10",0.0,8.7,82.1,1013.3,313.7,2.2,3.4,315.9,0.00,5.9,15.0,"20:01:04",1
"19/11/08","20:20",0.0,8.8,82.6,1013.3,295.8,2.0,3.6,320.1,0.00,6.0,15.1,"20:11:20",1
"19/11/08","20:30",0.0,8.5,82.9,1013.3,297.3,1.7,2.5,306.8,0.00,5.8,15.0,"20:26:00",1
"19/11/08","20:40",0.0,8.3,83.5,1013.0,308.0,2.0,3.2,302.3,0.00,5.7,14.7,"20:38:08",1
"19/11/08","20:50",0.0,8.1,84.0,1013.3,303.0,1.7,2.8,331.8,0.00,5.6,14.6,"20:46:32",1
"19/11/08","21:00",0.0,7.8,84.4,1013.8,303.5,1.5,2.2,312.4,0.00,5.4,14.5,"20:53:04",1
"19/11/08","21:10",0.0,7.7,84.9,1013.0,309.8,1.5,2.9,293.3,0.00,5.4,14.7,"21:01:52",1
"19/11/08","21:20",0.0,7.2,85.2,1013.0,285.6,1.1,1.7,303.9,0.00,4.9,14.3,"21:18:00",1
"19/11/08","21:30",0.0,7.0,85.7,1012.8,297.5,1.5,2.6,308.5,0.00,4.8,14.4,"21:23:28",1
"19/11/08","21:40",0.0,7.0,86.2,1013.0,303.7,1.5,2.7,312.8,0.00,4.9,14.2,"21:30:02",1
"19/11/08","21:50",0.0,7.3,86.9,1012.8,309.8,2.2,4.3,320.6,0.00,5.3,14.2,"21:47:28",1
"19/11/08","22:00",0.0,7.8,87.2,1012.8,299.4,2.0,3.3,332.1,0.00,5.8,14.1,"21:52:56",1
"19/11/08","22:10",0.0,7.8,87.3,1012.8,324.9,1.5,2.6,319.1,0.00,5.9,14.1,"22:05:20",1
"19/11/08","22:20",0.0,7.6,87.6,1012.8,308.3,1.3,2.6,322.5,0.00,5.7,13.9,"22:19:20",1
"19/11/08","22:30",0.0,7.5,87.6,1013.0,303.8,1.2,2.4,327.7,0.00,5.6,13.7,"22:24:32",1
"19/11/08","22:40",0.0,7.3,87.8,1012.8,292.5,1.3,3.1,317.2,0.00,5.5,13.7,"22:38:00",1
"19/11/08","22:50",0.0,6.9,88.0,1012.6,303.4,1.7,3.4,321.9,0.00,5.1,13.9,"22:47:52",1
"19/11/08","23:00",0.0,7.1,88.5,1012.6,295.5,1.7,2.9,342.8,0.00,5.4,13.6,"22:59:12",1
"19/11/08","23:10",0.0,7.8,88.5,1012.6,320.5,2.1,4.3,331.5,0.00,6.1,13.6,"23:02:16",1
"19/11/08","23:20",0.0,8.3,88.0,1012.6,324.2,2.3,4.5,331.1,0.00,6.5,13.6,"23:15:12",1
"19/11/08","23:30",0.0,8.6,87.4,1012.6,325.5,1.7,3.3,340.9,0.00,6.7,13.5,"23:27:12",1
"19/11/08","23:40",0.0,8.4,86.9,1013.0,325.2,1.5,2.7,326.7,0.00,6.4,13.5,"23:37:36",1
"19/11/08","23:50",0.0,8.3,86.3,1012.8,300.3,1.5,2.9,326.0,0.00,6.2,13.3,"23:44:24",1
"19/11/08","24:00",0.0,8.0,86.1,1012.6,294.6,1.2,2.6,322.8,0.00,5.9,13.4,"23:53:36",1
